STARLINK-2521, 48648

Orbit data source: Space-Track

STARLINK-2521, 48648 is a payload satellite owned by SpaceX/Seattle (US) in LEO that was launched on Wed, 26 May 2021 UTC via an FALCON 9 launch vehicle from the Air Force Eastern Test Range (AFETR). Payload-class satellites include a variety of spacecraft equipped with specific instruments for various scientific and technological missions. These include communications satellites like Starlink; space stations such as the ISS; scientific satellites like the Hubble; Earth observation satellites from companies like Planet Labs, Umbra, and HawkEye 360; GPS; miniature CubeSats for education and research; and military/defense satellites.

Loading next visibility...
Identifier
48648, 2021-044L
Orbit
LEO
Country
Flag of USUS
Related business
Manufacturer
SpaceX/Seattle
Mission
Operational Commercial Communications
Bus & Motor
STARLINK, Unknown motor
Mass
260 kg wet, ~248 kg dry
Launch date (UTC)
2021-05-26 (5 years ago)
Launch vehicle
FALCON 9
Launch site
Air Force Eastern Test Range (AFETR)
Object type
Payload
Rocket body
Debris
Shape & HBR
Box + 1 Pan, 10.1 m
Radar Cross Section
13.562 m², Large (>1 m²)

Expand to show TLE details & history
Last TLE update: 12 hours ago

TLE from 12 hours ago
0 STARLINK-2521
1 48648U 21044L   25349.65127040  .00000594  00000-0  58763-4 0  9990
2 48648  53.0546 139.0443 0001329  91.4898 268.6243 15.06398242251046
Epoch: 2025-12-15T15:37Z
TLE epoch observation values (Epoch: 2025-12-15T15:37:49.762Z)
Latitude
-0.00004°
Longitude
-179.95985°
Altitude
548.118 km
Speed
7.589 km/s
True Right ascension
09h 16m 10s
True Declination
0° 00' 00"
Sunlit
Object was in full shadow at epoch
Visualization orbit readout
Latitude
Unknown
Longitude
Unknown
Altitude
Unknown
Speed
Unknown
Apparent Right ascension
Unknown
Apparent Declination
Unknown
Sunlit
N/A
Visualization observer readout
Local Sidereal Time
02:28:03
Azimuth
Unknown
Elevation
Unknown
Doppler factor
Unknown
Orbital elements
Apogee altitude
548.408 km
Perigee altitude
546.567 km
Semi-major axis
6,925.625 km
Eccentricity
0.00013
Inclination
53.0546°
RAAN
139.0443°
Arg. of periapsis
91.4898°
True anomaly
268.60908°
Mean anomaly
268.6243°
Eccentric anomaly
268.61669°
Mean motion
3.76578 °/min
Orbital period
95.6 mins
BSTAR
0.000058763
Loading maneuver chart data...
Computing Atmospheric mass density...
Loading historical data...
Loading historical data...
Loading historical data...
Loading historical data...
Loading historical data...
Loading historical data...
Loading historical data...

Documentation

Showing up to 5 results
|